Hourly Weather Bolshoe Tishovo

Today, 30 July, Friday

Time Temperature Precipitation Wind Pressure Humidity
00:00 +18°C° 1.2 mm 2 mps 734 mmHg 97%
01:00 +19°C° 1.2 mm 1 mps 735 mmHg 97%
02:00 +19°C° 1.2 mm 1 mps 735 mmHg 98%
03:00 +19°C° 0.2 mm 1 mps 734 mmHg 97%
04:00 +19°C° 0.2 mm 1 mps 734 mmHg 97%
05:00 +17°C° 0.2 mm 0 mps 734 mmHg 97%
06:00 +20°C° 0 mm 1 mps 734 mmHg 95%
07:00 +20°C° 0 mm 1 mps 734 mmHg 93%
08:00 +21°C° 0 mm 1 mps 735 mmHg 91%
09:00 +21°C° 0.3 mm 2 mps 735 mmHg 85%
10:00 +22°C° 0.3 mm 3 mps 735 mmHg 80%
11:00 +23°C° 0.3 mm 4 mps 735 mmHg 74%
12:00 +25°C° 0.1 mm 4 mps 735 mmHg 66%
13:00 +26°C° 0.1 mm 4 mps 735 mmHg 58%
14:00 +27°C° 0.1 mm 5 mps 734 mmHg 50%
15:00 +26°C° 0 mm 4 mps 734 mmHg 53%
16:00 +25°C° 0 mm 4 mps 734 mmHg 55%
17:00 +23°C° 0 mm 4 mps 734 mmHg 58%
18:00 +21°C° 0 mm 4 mps 734 mmHg 65%
19:00 +20°C° 0 mm 3 mps 734 mmHg 72%
20:00 +18°C° 0 mm 2 mps 735 mmHg 80%
21:00 +18°C° 0 mm 3 mps 735 mmHg 76%
22:00 +18°C° 0 mm 3 mps 735 mmHg 73%
23:00 +18°C° 0 mm 3 mps 735 mmHg 69%

Tomorrow, 31 July, Saturday

Time Temperature Precipitation Wind Pressure Humidity
00:00 +18°C° 0 mm 3 mps 735 mmHg 70%
01:00 +17°C° 0 mm 3 mps 735 mmHg 71%
02:00 +17°C° 0 mm 3 mps 735 mmHg 71%
03:00 +16°C° 0 mm 3 mps 735 mmHg 75%
04:00 +14°C° 0 mm 3 mps 735 mmHg 79%
05:00 +14°C° 0 mm 3 mps 735 mmHg 82%
06:00 +17°C° 0 mm 4 mps 735 mmHg 75%
07:00 +19°C° 0 mm 5 mps 735 mmHg 67%
08:00 +21°C° 0 mm 5 mps 735 mmHg 59%
09:00 +22°C° 0 mm 6 mps 735 mmHg 55%
10:00 +23°C° 0 mm 6 mps 736 mmHg 50%
11:00 +26°C° 0 mm 7 mps 736 mmHg 45%
12:00 +26°C° 0 mm 7 mps 736 mmHg 44%
13:00 +27°C° 0 mm 6 mps 736 mmHg 42%
14:00 +27°C° 0 mm 6 mps 736 mmHg 41%
15:00 +27°C° 0 mm 6 mps 736 mmHg 44%
16:00 +27°C° 0 mm 5 mps 736 mmHg 48%
17:00 +26°C° 0 mm 4 mps 736 mmHg 51%
18:00 +24°C° 0 mm 3 mps 736 mmHg 58%
19:00 +23°C° 0 mm 2 mps 736 mmHg 65%
20:00 +21°C° 0 mm 1 mps 736 mmHg 72%
21:00 +20°C° 0 mm 1 mps 736 mmHg 73%
22:00 +19°C° 0 mm 2 mps 736 mmHg 75%
23:00 +18°C° 0 mm 2 mps 736 mmHg 76%

Day after tomorrow, 1 August, Sunday

Time Temperature Precipitation Wind Pressure Humidity
00:00 +18°C° 0 mm 2 mps 736 mmHg 76%
01:00 +18°C° 0 mm 2 mps 736 mmHg 76%
02:00 +18°C° 0 mm 2 mps 736 mmHg 76%
03:00 +18°C° 0.4 mm 2 mps 736 mmHg 82%
04:00 +18°C° 0.4 mm 2 mps 736 mmHg 88%
05:00 +18°C° 0.4 mm 3 mps 736 mmHg 95%
06:00 +18°C° 0.6 mm 3 mps 736 mmHg 95%
07:00 +19°C° 0.6 mm 3 mps 736 mmHg 95%
08:00 +19°C° 0.6 mm 3 mps 736 mmHg 95%
09:00 +21°C° 0.1 mm 3 mps 736 mmHg 84%
10:00 +23°C° 0.1 mm 4 mps 736 mmHg 74%
11:00 +27°C° 0.1 mm 4 mps 736 mmHg 63%
12:00 +27°C° 0.4 mm 4 mps 736 mmHg 66%
13:00 +26°C° 0.4 mm 4 mps 736 mmHg 70%
14:00 +26°C° 0.4 mm 4 mps 736 mmHg 73%
15:00 +26°C° 0.9 mm 4 mps 736 mmHg 76%
16:00 +25°C° 0.9 mm 3 mps 735 mmHg 80%
17:00 +25°C° 0.9 mm 3 mps 735 mmHg 83%
18:00 +23°C° 0.1 mm 2 mps 736 mmHg 84%
19:00 +21°C° 0.1 mm 2 mps 736 mmHg 85%
20:00 +21°C° 0.1 mm 1 mps 736 mmHg 86%
21:00 +20°C° 0 mm 1 mps 736 mmHg 87%
22:00 +19°C° 0 mm 2 mps 736 mmHg 87%
23:00 +18°C° 0 mm 2 mps 736 mmHg 87%

2 August, Monday

Time Temperature Precipitation Wind Pressure Humidity
00:00 +17°C° 0 mm 2 mps 736 mmHg 87%
01:00 +17°C° 0 mm 2 mps 736 mmHg 86%
02:00 +16°C° 0 mm 2 mps 736 mmHg 86%
03:00 +16°C° 0 mm 1 mps 736 mmHg 85%
04:00 +16°C° 0 mm 1 mps 736 mmHg 84%
05:00 +16°C° 0 mm 1 mps 736 mmHg 84%
06:00 +19°C° 0 mm 1 mps 735 mmHg 79%
07:00 +19°C° 0 mm 2 mps 735 mmHg 74%
08:00 +21°C° 0 mm 2 mps 735 mmHg 70%
09:00 +22°C° 0 mm 3 mps 735 mmHg 69%
10:00 +24°C° 0 mm 3 mps 734 mmHg 69%
11:00 +25°C° 0 mm 4 mps 734 mmHg 68%
12:00 +25°C° 0.4 mm 4 mps 734 mmHg 70%
13:00 +25°C° 0.4 mm 4 mps 734 mmHg 72%
14:00 +25°C° 0.4 mm 5 mps 733 mmHg 75%
15:00 +23°C° 2.5 mm 4 mps 733 mmHg 81%
16:00 +21°C° 2.5 mm 4 mps 732 mmHg 87%
17:00 +20°C° 2.5 mm 3 mps 732 mmHg 92%
18:00 +19°C° 1 mm 3 mps 732 mmHg 94%
19:00 +19°C° 1 mm 3 mps 732 mmHg 95%
20:00 +18°C° 1 mm 2 mps 732 mmHg 96%
21:00 +18°C° 0.1 mm 2 mps 733 mmHg 97%
22:00 +17°C° 0.1 mm 3 mps 733 mmHg 97%
23:00 +17°C° 0.1 mm 3 mps 734 mmHg 97%

3 August, Tuesday

Time Temperature Precipitation Wind Pressure Humidity
00:00 +16°C° 0 mm 3 mps 734 mmHg 96%
01:00 +15°C° 0 mm 4 mps 734 mmHg 95%
02:00 +14°C° 0 mm 4 mps 735 mmHg 94%
03:00 +14°C° 0 mm 4 mps 735 mmHg 95%
04:00 +13°C° 0 mm 3 mps 736 mmHg 96%
05:00 +13°C° 0 mm 2 mps 736 mmHg 97%
06:00 +14°C° 0 mm 3 mps 737 mmHg 92%
07:00 +16°C° 0 mm 3 mps 737 mmHg 87%
08:00 +18°C° 0 mm 4 mps 737 mmHg 82%
09:00 +19°C° 0 mm 4 mps 737 mmHg 74%
10:00 +20°C° 0 mm 4 mps 738 mmHg 66%
11:00 +22°C° 0 mm 4 mps 738 mmHg 58%
12:00 +22°C° 0 mm 4 mps 738 mmHg 55%
13:00 +22°C° 0 mm 5 mps 738 mmHg 51%
14:00 +23°C° 0 mm 5 mps 738 mmHg 48%
15:00 +22°C° 0 mm 4 mps 739 mmHg 49%
16:00 +22°C° 0 mm 4 mps 739 mmHg 51%
17:00 +22°C° 0 mm 4 mps 739 mmHg 52%
18:00 +20°C° 0 mm 3 mps 739 mmHg 59%
19:00 +19°C° 0 mm 3 mps 740 mmHg 65%
20:00 +17°C° 0 mm 2 mps 740 mmHg 71%
21:00 +16°C° 0 mm 2 mps 740 mmHg 72%
22:00 +16°C° 0 mm 2 mps 740 mmHg 73%
23:00 +16°C° 0 mm 1 mps 741 mmHg 74%

4 August, Wednesday

Time Temperature Precipitation Wind Pressure Humidity
00:00 +15°C° 0 mm 1 mps 741 mmHg 76%
01:00 +15°C° 0 mm 2 mps 741 mmHg 78%
02:00 +15°C° 0 mm 2 mps 741 mmHg 80%
03:00 +15°C° 0 mm 2 mps 742 mmHg 82%
04:00 +14°C° 0 mm 1 mps 742 mmHg 84%
05:00 +14°C° 0 mm 1 mps 742 mmHg 87%
06:00 +16°C° 0 mm 2 mps 742 mmHg 82%
07:00 +17°C° 0 mm 2 mps 743 mmHg 78%
08:00 +18°C° 0 mm 2 mps 743 mmHg 74%
09:00 +19°C° 0.1 mm 2 mps 743 mmHg 70%
10:00 +20°C° 0.1 mm 2 mps 743 mmHg 66%
11:00 +21°C° 0.1 mm 2 mps 743 mmHg 61%
12:00 +23°C° 0.2 mm 2 mps 743 mmHg 60%
13:00 +23°C° 0.2 mm 2 mps 743 mmHg 58%
14:00 +24°C° 0.2 mm 2 mps 743 mmHg 57%
15:00 +23°C° 0.3 mm 2 mps 743 mmHg 60%
16:00 +23°C° 0.3 mm 1 mps 743 mmHg 63%
17:00 +23°C° 0.3 mm 1 mps 743 mmHg 67%
18:00 +21°C° 0.2 mm 1 mps 743 mmHg 72%
19:00 +20°C° 0.2 mm 1 mps 743 mmHg 77%
20:00 +18°C° 0.2 mm 1 mps 743 mmHg 82%
21:00 +16°C° 0 mm 2 mps 743 mmHg 84%
22:00 +16°C° 0 mm 2 mps 743 mmHg 86%
23:00 +15°C° 0 mm 2 mps 743 mmHg 88%
Show more

We Need Your Consent

Meteoprog and our Service Providers may store and access personal data such as cookies, device identifiers or other similar technologies on your device and process such data to personalise content and ads, as well as provide social media features and to analyse the traffic.

  • Store and/or access information on your device

    Cookies, device identifiers or other information can be stored or accessed on your device for the purposes indicated above.

  • Personalised ads and content, ad and content measurement, audience insights, and products development

    Ads and content can be personalised based on a profile. More data can be added to better personalise ads and content. Ad and content performance can be measured. Insights about the audience who saw the ads and content can be derived. Such data can be used to develop or improve user’s experience, systems and software.

By clicking ‘I Agree’ you will allow the use of indicated cookies, device identifiers, web beacons or other similar technologies. Your settings can be changed in the browser on your device.

For certain purposes, legitimate interests may be relied on, rather than consent. You can read more about this in our Privacy and Cookie Policy.